Flight Track Log - Related Links

Times and Time Zones

All times are in EDT time to prevent confusion due to time zone crossing. See the CPZ5714 flight status page for this flight to view local times or setup timezone preferences in your user account.

Time Position Orientation Groundspeed Altitude Reporting Facility
EDT Latitude Longitude Course Direction KTS MPH feet Rate Location/Type
Sat 08:45:53 PM 44.9333 -93.2667 70° East 184 212 3,000  Level Minneapolis TRACON
Sat 08:46:47 PM 44.9833 -93.3000 335° Northwest 209 241 5,700 2,389 Climbing Minneapolis TRACON
Sat 08:47:41 PM 45.0167 -93.2500 47° Northeast 251 289 7,300 2,245 Climbing Minneapolis TRACON
Sat 08:48:00 PM 45.0303 -92.6523 68° East  Level FlightAware Approximate
Sat 08:49:00 PM 45.0708 -92.5106 68° East  Level FlightAware Approximate
Sat 08:49:06 PM 45.0667 -93.1042 64° Northeast 273 314 10,900  Level Minneapolis Center
Sat 08:50:00 PM 45.1043 -92.3661 70° East  Level FlightAware Approximate
Sat 08:50:07 PM 45.1025 -92.9831 67° East 329 379 12,700  Level Minneapolis Center
Sat 08:51:00 PM 45.1409 -92.2201 70° East  Level FlightAware Approximate
Sat 08:51:09 PM 45.1392 -92.8575 67° East 345 397 15,000  Level Minneapolis Center
Sat 08:52:11 PM 45.1764 -92.7278 68° East 354 407 17,200 1,935 Climbing Minneapolis Center
Sat 08:53:13 PM 45.2136 -92.5972 68° East 356 410 19,000 1,694 Climbing Minneapolis Center
Sat 08:54:15 PM 45.2550 -92.4578 67° East 379 436 20,700 1,597 Climbing Minneapolis Center
Sat 08:55:17 PM 45.2961 -92.3128 68° East 394 453 22,300 1,561 Climbing Minneapolis Center
Sat 08:56:18 PM 45.3250 -92.1242 78° East 408 470 23,900 1,463 Climbing Minneapolis Center
Sat 08:57:20 PM 45.3489 -91.9611 78° East 420 483 25,300 1,258 Climbing Minneapolis Center
Sat 08:58:22 PM 45.3497 -91.7911 90° East 436 502 26,500 1,122 Climbing Minneapolis Center
Sat 08:59:23 PM 45.3450 -91.6206 92° East 435 501 27,600 1,024 Climbing Minneapolis Center
Sat 09:00:25 PM 45.3386 -91.4456 93° East 441 507 28,600 1,210 Climbing Minneapolis Center
Sat 09:01:27 PM 45.3053 -91.2792 106° East 437 503 30,100 1,403 Climbing Minneapolis Center
Sat 09:02:29 PM 45.2656 -91.1028 108° East 433 498 31,500 1,220 Climbing Minneapolis Center
Sat 09:03:30 PM 45.2281 -90.9439 108° East 429 494 32,600 732 Climbing Minneapolis Center
Sat 09:04:32 PM 45.1919 -90.7881 108° East 423 487 33,000 194 Climbing Minneapolis Center
Sat 09:05:34 PM 45.1494 -90.6006 108° East 419 482 33,000  Level Minneapolis Center
Sat 09:06:36 PM 45.1131 -90.4453 108° East 417 480 33,000  Level Minneapolis Center
Sat 09:07:37 PM 45.0761 -90.2908 109° East 417 480 33,000  Level Minneapolis Center
Sat 09:08:39 PM 45.0628 -90.1278 97° East 420 483 33,000  Level Minneapolis Center
Sat 09:09:41 PM 45.0536 -89.9636 94° East 421 484 33,000  Level Minneapolis Center
Sat 09:10:42 PM 45.0433 -89.7956 95° East 429 494 33,000  Level Minneapolis Center
Sat 09:11:44 PM 45.0319 -89.6194 95° East 426 490 33,000  Level Minneapolis Center
Sat 09:12:46 PM 45.0214 -89.4522 95° East 427 491 33,000  Level Minneapolis Center
Sat 09:13:48 PM 45.0119 -89.2839 94° East 427 491 33,000  Level Minneapolis Center
Sat 09:14:49 PM 44.9983 -89.0878 96° East 429 494 33,000 585 Level Minneapolis Center
Sat 09:15:51 PM 44.9875 -88.9186 95° East 432 497 34,200 968 Climbing Minneapolis Center
Sat 09:16:53 PM 44.9756 -88.7575 96° East 418 481 35,000 390 Climbing Minneapolis Center
Sat 09:17:54 PM 44.9642 -88.5925 96° East 420 483 35,000  Level Minneapolis Center
Sat 09:18:56 PM 44.9519 -88.4211 96° East 435 501 35,000  Level Minneapolis Center
Sat 09:19:58 PM 44.9378 -88.2350 96° East 441 507 35,000  Level Minneapolis Center
Sat 09:20:59 PM 44.9261 -88.0622 95° East 442 509 35,000  Level Minneapolis Center
Sat 09:22:01 PM 44.9125 -87.8911 96° East 441 507 35,000  Level Minneapolis Center
Sat 09:23:03 PM 44.8992 -87.7208 96° East 439 505 35,000  Level Minneapolis Center
Sat 09:24:04 PM 44.8850 -87.5492 97° East 441 507 35,000  Level Minneapolis Center
Sat 09:25:06 PM 44.8703 -87.3778 97° East 443 510 35,000  Level Minneapolis Center
Sat 09:26:07 PM 44.8531 -87.1714 97° East 443 510 35,000  Level Minneapolis Center
Sat 09:27:09 PM 44.8389 -86.9994 97° East 444 511 35,000  Level Minneapolis Center
Sat 09:28:11 PM 44.8244 -86.8283 97° East 442 509 35,000  Level Minneapolis Center
Sat 09:29:12 PM 44.8097 -86.6600 97° East 447 514 35,000  Level Minneapolis Center
Sat 09:30:14 PM 44.7942 -86.4878 97° East 446 513 35,000  Level Minneapolis Center
Sat 09:31:15 PM 44.7783 -86.3153 97° East 445 512 35,000  Level Minneapolis Center
Sat 09:32:17 PM 44.7622 -86.1436 97° East 444 511 35,000  Level Minneapolis Center
Sat 09:33:18 PM 44.7425 -85.9353 98° East 445 512 35,000  Level Minneapolis Center
Sat 09:34:20 PM 44.7264 -85.7628 97° East 446 513 35,000  Level Minneapolis Center
Sat 09:35:21 PM 44.7106 -85.6017 98° East 447 514 35,000  Level Minneapolis Center
Sat 09:36:23 PM 44.6942 -85.4286 98° East 447 514 35,000  Level Minneapolis Center
Sat 09:37:24 PM 44.6767 -85.2569 98° East 446 513 35,000  Level Minneapolis Center
Sat 09:38:26 PM 44.6556 -85.0503 98° East 446 513 35,000  Level Minneapolis Center
Sat 09:39:27 PM 44.6381 -84.8778 98° East 447 514 35,000  Level Minneapolis Center
Sat 09:40:28 PM 44.6192 -84.7044 99° East 449 517 35,000  Level Minneapolis Center
Sat 09:41:30 PM 44.6019 -84.5328 98° East 447 514 35,000  Level Minneapolis Center
Sat 09:42:31 PM 44.5831 -84.3597 99° East 449 517 35,000  Level Minneapolis Center
Sat 09:43:32 PM 44.5642 -84.1858 99° East 451 519 35,000  Level Minneapolis Center
Sat 09:44:34 PM 44.5458 -84.0128 98° East 451 519 35,000  Level Minneapolis Center
Sat 09:45:35 PM 44.5247 -83.8403 100° East 450 518 35,000  Level Minneapolis Center
Sat 09:46:36 PM 44.5050 -83.6675 99° East 451 519 35,000  Level Minneapolis Center
Sat 09:47:38 PM 44.4819 -83.4603 99° East 450 518 35,000  Level Minneapolis Center
Sat 09:48:39 PM 44.4617 -83.2881 99° East 451 519 35,000  Level Minneapolis Center
Sat 09:49:40 PM 44.4400 -83.1161 100° East 450 518 35,000  Level Minneapolis Center
Sat 09:50:42 PM 44.4189 -82.9439 100° East 450 518 35,000  Level Minneapolis Center
Sat 09:51:43 PM 44.3997 -82.7714 99° East 450 518 35,000  Level Minneapolis Center
Sat 09:52:44 PM 44.3778 -82.5997 100° East 449 517 35,000  Level Minneapolis Center
Sat 09:53:15 PM 44.3500 -82.4833 108° East 450 518 35,000  Level Toronto Center
Sat 09:54:15 PM 44.3333 -82.3167 98° East 450 518 35,000  Level Toronto Center
Sat 09:55:15 PM 44.2833 -82.1500 113° Southeast 450 518 35,000  Level Toronto Center
Sat 09:56:15 PM 44.2500 -81.9833 106° East 450 518 35,000  Level Toronto Center
Sat 09:57:15 PM 44.2167 -81.8167 106° East 450 518 35,000  Level Toronto Center
Sat 09:58:15 PM 44.1667 -81.6500 113° Southeast 450 518 35,000  Level Toronto Center
Sat 09:59:15 PM 44.1333 -81.4667 104° East 450 518 35,000  Level Toronto Center
Sat 10:00:15 PM 44.0833 -81.3333 118° Southeast 450 518 35,000  Level Toronto Center
Sat 10:01:15 PM 44.0500 -81.1667 105° East 450 518 35,000  Level Toronto Center
Sat 10:02:15 PM 44.0000 -81.0000 113° Southeast 450 518 35,000  Level Toronto Center
Sat 10:03:15 PM 43.9667 -80.8167 104° East 450 518 35,000  Level Toronto Center
Sat 10:04:15 PM 43.9333 -80.6667 107° East 450 518 35,000  Level Toronto Center
Sat 10:05:15 PM 43.8833 -80.4833 111° Southeast 450 518 35,000  Level Toronto Center
Sat 10:06:15 PM 43.8500 -80.3500 109° East 450 518 35,000  Level Toronto Center
Sat 10:07:15 PM 43.8000 -80.1833 113° Southeast 450 518 35,000  Level Toronto Center
Sat 10:08:15 PM 43.7500 -80.0333 115° Southeast 450 518 35,000  Level Toronto Center
Sat 10:09:15 PM 43.7167 -79.8667 105° East 450 518 35,000  Level Toronto Center
Sat 10:10:15 PM 43.6667 -79.7000 112° Southeast 450 518 35,000  Level Toronto Center
Sat 10:11:15 PM 43.6333 -79.5167 104° East 460 529 35,000  Level Toronto Center
Sat 10:12:15 PM 43.6167 -79.3500 98° East 460 529 35,000  Level Toronto Center
Sat 10:13:15 PM 43.6000 -79.1667 97° East 460 529 35,000  Level Toronto Center
Sat 10:14:15 PM 43.5667 -78.9833 104° East 470 541 35,000  Level Toronto Center
Sat 10:15:15 PM 43.5500 -78.8333 99° East 470 541 35,000  Level Toronto Center
Sat 10:16:15 PM 43.5333 -78.6667 98° East 460 529 35,000  Level Toronto Center
Sat 10:17:15 PM 43.4833 -78.4833 111° Southeast 470 541 35,000  Level Toronto Center
Sat 10:18:15 PM 43.4667 -78.3000 97° East 470 541 35,000  Level Toronto Center
Sat 10:18:45 PM 43.4678 -78.2292 89° East 469 540 35,000  Level Cleveland Center
Sat 10:19:45 PM 43.4433 -78.0556 101° East 469 540 35,000 -100 Level Cleveland Center
Sat 10:20:45 PM 43.4186 -77.8794 101° East 469 540 34,800 -600 Descending Cleveland Center
Sat 10:21:45 PM 43.3936 -77.7033 101° East 469 540 33,800 -1,000 Descending Cleveland Center
Sat 10:24:15 PM 43.3167 -77.2333 103° East 480 552 31,300 -1,029 Descending Toronto Center
Sat 10:25:15 PM 43.2833 -77.0500 104° East 480 552 30,200 -1,000 Descending Toronto Center
Sat 10:26:15 PM 43.2667 -76.8667 97° East 480 552 29,300 -600 Descending Toronto Center
Sat 10:27:15 PM 43.2333 -76.6833 104° East 480 552 29,000 -150 Descending Toronto Center
Sat 10:28:15 PM 43.2000 -76.5167 105° East 480 552 29,000  Level Toronto Center
Sat 10:29:36 PM 43.1789 -76.3042 98° East 478 550 29,000  Level Boston Center
Sat 10:30:36 PM 43.1494 -76.1258 103° East 478 550 29,000  Level Boston Center
Sat 10:31:36 PM 43.1219 -75.9450 102° East 478 550 29,000  Level Boston Center
Sat 10:32:36 PM 43.0917 -75.7697 103° East 478 550 29,000  Level Boston Center
Sat 10:33:36 PM 43.0614 -75.5919 103° East 473 544 29,000 -550 Level Boston Center
Sat 10:34:36 PM 43.0306 -75.4111 103° East 479 551 27,900 -2,100 Descending Boston Center
Sat 10:35:36 PM 43.0017 -75.2394 103° East 469 540 24,800 -3,000 Descending Boston Center
Sat 10:36:36 PM 42.9742 -75.0792 103° East 455 524 21,900 -2,850 Descending Boston Center
Sat 10:37:36 PM 42.9486 -74.9222 102° East 436 502 19,100 -2,700 Descending Boston Center
Sat 10:38:36 PM 42.9244 -74.7878 104° East 414 476 16,500 -2,700 Descending Boston Center
Sat 10:39:36 PM 42.8961 -74.6308 104° East 386 444 13,700 -2,550 Descending Boston Center
Sat 10:40:36 PM 42.8756 -74.5111 103° East 372 428 11,400 -1,404 Descending Boston Center
Sat 10:41:57 PM 42.8767 -74.3214 89° East 356 410 10,400 -909 Descending Boston Center
Sat 10:42:48 PM 42.8617 -74.2161 101° East 330 380 9,400 -1,189 Descending Boston Center
Sat 10:43:48 PM 42.8447 -74.1022 101° East 312 359 8,200 -1,350 Descending Boston Center
Sat 10:44:48 PM 42.8356 -74.0058 97° East 300 345 6,700 -2,050 Descending Boston Center
Sat 10:45:48 PM 42.8789 -73.8936 62° Northeast 275 316 4,100 -2,050 Descending Boston Center
Sat 10:46:48 PM 42.8650 -73.8225 105° East 255 293 2,600 -1,500 Descending Boston Center

Login

Don't have an account? Register now (free) for customized features, flight alerts, and more!